Location: Carr Mill
(33.2054°N, 85.9439°W)
Time: 21:03:39
(UTC+00:00)

STARLINK-2750 - Pass Details

Date: 24 June 2021
Orbit: 348 x 351 km, 53.0° (Epoch: 03 August)

Event Time Altitude Azimuth Distance (km) Brightness Sun altitude
Exits shadow 07:58:31 17° 67° (ENE) 996 5.6 -25.2°
Drops below altitude 10° 07:59:22 10° 60° (ENE) 1,314 6.4 -25.1°
Sets 08:01:27 0° 52° (NE) 2,160 7.9 -24.9°
